Home > Time Zones > World Clock > Weather > India > Theni > Past weeks

Flag for India Weather past 2 weeks in Theni, Tamil Nadu, India

Now
73 °F

Partly cloudy.


Feels Like: 70 °F
Forecast: 74 / 90 °F
Wind: 8 mph from West

Location: Coimbatore / Peelamedu

Current Time: Aug 31, 2014 at 12:52:22 AM

Latest Report: Aug 31, 2014 at 12:30 AM


Visibility: 3 mi

Pressure: 29.77 "Hg

Humidity: 94%

Dew point: 72 °F

Location of TheniLocation

Historic Weather in Theni — Graph

°F

Theni temperature yesterday

Maximum temperature yesterday: 88 °F (at 1:00 PM)
Minimum temperature yesterday: 73 °F (at 12:30 AM)
Average temperature yesterday: 78 °F

Past Weeks' High & Low Weather Summary

 TemperatureHumidityPressure
High95 °F (Aug 22, 2:00 PM)100% (Aug 23, 5:30 AM)29.95 "Hg (Aug 23, 5:30 AM)
Low72 °F (Aug 29, 6:30 AM)39% (Aug 22, 2:00 PM)29.65 "Hg (Aug 21, 4:30 PM)
Average81 °F73%29.82 "Hg
* Reported Aug 15 10:30 PM — Aug 30 11:00 PM, Theni, Weather by CustomWeather, © 2014

Note: Actual official high and low records may vary slightly from our data, if they occured in-between our weather recording intervals... More about our weather records

Advertising

Theni weather history for previous 24 hours

 ConditionsComfort  
Time TempWeatherWind HumidityBarometerVisibility
11:00 PM
Aug 30
73 °FPartly cloudy.13 mph100%29.83 "Hg3 mi
10:30 PM73 °FPartly cloudy.8 mph100%29.80 "Hg3 mi
10:00 PM75 °FPartly cloudy.12 mph89%29.80 "Hg3 mi
9:30 PM75 °FPartly cloudy.12 mph89%29.80 "Hg3 mi
9:00 PM75 °FPartly cloudy.13 mph89%29.80 "Hg3 mi
8:30 PM75 °FPartly cloudy.13 mph89%29.80 "Hg3 mi
8:00 PM77 °FLight rain. Partly cloudy.12 mph79%29.80 "Hg3 mi
7:30 PM79 °FPartly cloudy.13 mph70%29.77 "Hg3 mi
7:00 PM79 °FBroken clouds.15 mph70%29.77 "Hg3 mi
6:30 PM79 °FBroken clouds.13 mph74%29.74 "Hg3 mi
6:00 PM79 °FDrizzle. Broken clouds.15 mph74%29.74 "Hg3 mi
5:30 PM77 °FLight rain. Broken clouds.14 mph83%29.74 "Hg3 mi
5:00 PM81 °FDrizzle. Broken clouds.10 mph66%29.71 "Hg4 mi
4:30 PM81 °FScattered clouds.13 mph62%29.71 "Hg5 mi
3:30 PM79 °FDrizzle. Broken clouds.16 mph79%29.74 "Hg3 mi
3:00 PM82 °FDrizzle. Broken clouds.15 mph70%29.71 "Hg4 mi
2:30 PM84 °FScattered clouds.15 mph62%29.74 "Hg5 mi
2:00 PM84 °FScattered clouds.16 mph62%29.74 "Hg4 mi
1:30 PM88 °FScattered clouds.15 mph52%29.77 "Hg4 mi
1:00 PM88 °FScattered clouds.12 mph49%29.77 "Hg4 mi
12:00 PM82 °FPartly sunny.14 mph66%29.80 "Hg4 mi
11:30 AM84 °FPartly sunny.12 mph62%29.80 "Hg4 mi
10:30 AM86 °FPassing clouds.17 mph52%29.80 "Hg4 mi
10:00 AM84 °FPassing clouds.15 mph55%29.80 "Hg4 mi
9:00 AM79 °FScattered clouds.12 mph74%29.80 "Hg4 mi
8:30 AM77 °FScattered clouds.9 mph79%29.80 "Hg4 mi
8:00 AM77 °FScattered clouds.14 mph79%29.80 "Hg4 mi
7:30 AM75 °FBroken clouds.14 mph89%29.77 "Hg4 mi
7:00 AM75 °FBroken clouds.12 mph89%29.77 "Hg4 mi
6:30 AM73 °FPartly cloudy.9 mph89%29.77 "Hg4 mi
6:00 AM73 °FPartly cloudy.13 mph89%29.77 "Hg4 mi
5:30 AM73 °FPassing clouds.12 mph89%29.77 "Hg4 mi
4:30 AM73 °FPassing clouds.13 mph89%29.77 "Hg4 mi
3:30 AM73 °FPassing clouds.9 mph89%29.77 "Hg4 mi
2:30 AM73 °FPassing clouds.12 mph89%29.77 "Hg4 mi
12:30 AM73 °FPassing clouds.13 mph89%29.77 "Hg4 mi
Weather by CustomWeather, © 2014

See weather overviewHow to use our weather pages